Flag for U.S.A. Weather past 2 weeks in Springfield, Illinois, U.S.A.

Now
47 °F

Passing clouds.


Feels Like: 42 °F
Forecast: 43 / 64 °F
Wind: 10 mph from West

Location: Capital Airport

Current Time: Apr 20, 2015 at 9:25:17 PM

Latest Report: Apr 20, 2015 at 8:52 PM


Visibility: 10 mi

Pressure: 29.77 "Hg

Humidity: 66%

Dew point: 36 °F

Location of SpringfieldLocation

Historic Weather in Springfield — Graph

°F

Springfield temperature yesterday

Maximum temperature yesterday: 63 °F (at 12:52 AM)
Minimum temperature yesterday: 57 °F (at 4:52 AM)
Average temperature yesterday: 60 °F

Past Weeks' High & Low Weather Summary

 TemperatureHumidityPressure
High81 °F (Apr 9, 4:52 PM)97% (Apr 7, 11:52 AM)30.32 "Hg (Apr 7, 11:52 AM)
Low35 °F (Apr 11, 4:52 AM)24% (Apr 13, 4:52 PM)29.40 "Hg (Apr 20, 12:52 AM)
Average61 °F63%29.96 "Hg
* Reported Apr 5 7:52 PM — Apr 20 7:52 PM, Springfield, Weather by CustomWeather, © 2015

Note: Actual official high and low records may vary slightly from our data, if they occured in-between our weather recording intervals... More about our weather records

Advertising

Springfield weather history for previous 24 hours

 ConditionsComfort  
Time TempWeatherWind HumidityBarometerVisibility
7:52 PM
Mon, Apr 20
49 °FPartly sunny.10 mph59%29.76 "Hg10 mi
6:52 PM52 °FPartly sunny.18 mph53%29.75 "Hg10 mi
5:52 PM52 °FOvercast.17 mph50%29.73 "Hg10 mi
4:52 PM52 °FOvercast.22 mph53%29.72 "Hg10 mi
3:52 PM52 °FMore clouds than sun.17 mph55%29.71 "Hg10 mi
2:52 PM52 °FOvercast.23 mph53%29.69 "Hg10 mi
1:52 PM51 °FCloudy.18 mph61%29.67 "Hg10 mi
12:52 PM51 °FCloudy.18 mph61%29.65 "Hg10 mi
11:52 AM52 °FPartly sunny.24 mph55%29.63 "Hg10 mi
10:52 AM53 °FPartly sunny.15 mph59%29.60 "Hg10 mi
9:52 AM50 °FMostly cloudy.25 mph63%29.57 "Hg10 mi
8:52 AM50 °FMostly cloudy.20 mph71%29.55 "Hg10 mi
7:52 AM50 °FMostly cloudy.20 mph77%29.53 "Hg10 mi
6:52 AM49 °FOvercast.18 mph80%29.50 "Hg10 mi
5:52 AM49 °FMostly cloudy.18 mph80%29.48 "Hg10 mi
4:52 AM50 °FOvercast.21 mph83%29.46 "Hg10 mi
3:52 AM51 °FOvercast.21 mph86%29.45 "Hg10 mi
2:52 AM53 °FOvercast.21 mph86%29.42 "Hg10 mi
1:52 AM55 °FLow clouds.21 mph90%29.40 "Hg10 mi
12:52 AM58 °FOvercast.15 mph90%29.40 "Hg10 mi
11:52 PM
Sun, Apr 19
59 °FOvercast.10 mph90%29.41 "Hg10 mi
10:52 PM59 °FOvercast.8 mph90%29.41 "Hg8 mi
9:52 PM58 °FFog.8 mph93%29.44 "Hg4 mi
Weather by CustomWeather, © 2015

See weather overviewHow to use our weather pages